Portada
METAR-TAF:

METAR-TAF

Aeroports :

Paris, Tennessee, Estats Units d'Amèrica

latitud: 36-20-18N, longitud: 088-22-58W, altitud: 177 m

Observació

L'informe es va fer fa 15 minuts, a les 11:15 UTC
Vent calma
Temperatura 21°C
Humitat 100%
Pressió 1024 hPa
Visibilitat: 16.1 km
Cel clar

METAR: KPHT 211115Z AUTO 00000KT 10SM CLR 21/21 A3024 RMK A01

Hora: 06:30 (11:30 UTC)


TAF: manca

Observacions i pronòstics meteorològics de més de 4000 aeroports (METAR i TAF).

Les estacions disponibles són els punts grocs i vermells al mapa.

Posi el ratolí al punt desitjat per veure el nom de l'estació.

Feu clic per veure les observacions i els pronòstics meteorològics.

Per canviar el mapa: feu clic els botons verds amb una creu de color negre per apropar; al botó verd amb un guió per allunyar la imatge; o en les fletxes verdes per a mapes adjacents.


METAR-TAF: